Lexington Weather

Lexington, Massachusetts, USA

23°F
1/23/2020 8:12am 
  • Lexington Conditions: Partly cloudy
  • Temperature: 23.4°F / -4.8°CWarmer 2.0°F than last hour.
  • Dew Point: 17.8°FIncreased 1.1°Fsince last hour.
  • Relative Humidity: 79%Decreased 3.0% since last hour.
  • Wind: Calm, 10-min avg: Calm, gust: 1 mph
  • Barometer: 30.33 in Steady
  • Visibility: 10 miles
  • Snow Today: 0.0 in
  •   

Regional Weather Roundup
for Boston / Norton, MA

        
000
ASUS41 KBOX 230300
RWRBOX

REGIONAL WEATHER ROUNDUP
NATIONAL WEATHER SERVICE BOSTON/NORTON MA
1000 PM EST WED JAN 22 2020

NOTE:  "FAIR" INDICATES FEW OR NO CLOUDS BELOW 12,000 FEET WITH NO 
SIGNIFICANT WEATHER AND/OR OBSTRUCTIONS TO VISIBILITY.

MAZALL-230400-
EASTERN MASSACHUSETTS
  
CITY           SKY/WX    TMP DP  RH WIND       PRES   REMARKS
BOSTON         FAIR      31  18  58 S8        30.41S WCI  23          
BEVERLY        FAIR      24  15  68 S5        30.39F WCI  18          
LAWRENCE       FAIR      25  15  66 S5        30.40F WCI  19          
BEDFORD        FAIR      19  13  77 CALM      30.38F                  
BLUE HILL        N/A     27  17  66 S9        30.37R WCI  18          
NORWOOD        FAIR      18  11  74 CALM      30.42R                  
MARSHFIELD     NOT AVBL                                               
PLYMOUTH       FAIR      21  17  84 CALM      30.42S                  
TAUNTON        FAIR      19  15  84 CALM      30.42S                  
NEW BEDFORD    FAIR      20  16  84 CALM      30.42S                  
$$

MAZALL-230400-
CAPE COD AND THE ISLANDS
  
CITY           SKY/WX    TMP DP  RH WIND       PRES   REMARKS
FALMOUTH       CLEAR     18  12  79 CALM      30.42S                  
HYANNIS        NOT AVBL                                               
CHATHAM        FAIR      24  19  81 CALM      30.44F                  
PROVINCETOWN   FAIR      30  24  78 SW7       30.43F WCI  23          
NANTUCKET      FAIR      24  17  74 CALM      30.44S                  
MARTHAS VNYRD  FAIR      17  12  80 CALM      30.43S                  
$$
 
MAZALL-230400-
CENTRAL AND WESTERN MASSACHUSETTS
  
CITY           SKY/WX    TMP DP  RH WIND       PRES   REMARKS
WORCESTER      FAIR      27  15  61 W12       30.35F WCI  17          
FITCHBURG      FAIR      19  14  81 N5        30.39S WCI  12          
ORANGE         FAIR      16  11  80 CALM      30.40R                  
SPRINGFIELD    NOT AVBL                                               
WESTFIELD      CLEAR     18  12  79 CALM      30.40S                  
NORTH ADAMS    FAIR      16  11  80 CALM      30.39S                  
PITTSFIELD     FAIR      18  12  77 CALM      30.34S                  
$$
 
RIZALL-230400-
RHODE ISLAND
  
CITY           SKY/WX    TMP DP  RH WIND       PRES   REMARKS
PROVIDENCE     FAIR      25  19  78 CALM      30.43S                  
NEWPORT        FAIR      26  20  77 CALM      30.41F                  
BLOCK ISLAND   FAIR      27  23  85 SW6       30.43F WCI  20          
SMITHFIELD     FAIR      25  17  72 CALM      30.40S                  
WESTERLY       FAIR      24  18  77 CALM      30.44S                  
$$
 
CTZALL-230400-
CONNECTICUT
  
CITY           SKY/WX    TMP DP  RH WIND       PRES   REMARKS
BRADLEY INTL   FAIR      23  16  74 S5        30.41S WCI  17          
HARTFORD       FAIR      24  19  81 CALM      30.43S                  
BRIDGEPORT     FAIR      26  19  74 CALM      30.44S                  
DANBURY        FAIR      18  13  80 CALM      30.42F                  
GROTON         NOT AVBL                                               
NEW HAVEN      FAIR      19  16  88 CALM      30.43S                  
CHESTER        NOT AVBL                                               
MERIDEN        FAIR      19  16  88 CALM      30.43S                  
WILLIMANTIC    FAIR      19  15  84 CALM      30.43S                  
OXFORD         FAIR      24  15  68 CALM      30.40S                  
$$

MEZ002-015-021-024-NHZ003-005-008-011-012-014-VTZ005-008-230400-
NORTHERN NEW ENGLAND
  
CITY           SKY/WX    TMP DP  RH WIND       PRES   REMARKS
PORTLAND ME    FAIR      29  15  56 SW5       30.38S WCI  24          
BANGOR ME      FAIR      25  20  81 S7        30.34F WCI  17          
CONCORD NH     FAIR      18  13  80 CALM      30.37F                  
MANCHESTER NH  FAIR      23  15  71 CALM      30.37S                  
NASHUA NH      FAIR      19  17  92 CALM      30.39S                  
PORTSMOUTH NH  NOT AVBL                                               
JAFFREY NH     FAIR      16  12  84 S5        30.35S WCI   9          
KEENE NH       FAIR      14  11  87 CALM      30.40R                  
BURLINGTON VT  FAIR      30  18  60 S10       30.30F WCI  21          
MT. WASHINGTON NOT AVBL                                               
$$

NYZ052-076-230400-
EASTERN NEW YORK
  
CITY           SKY/WX    TMP DP  RH WIND       PRES   REMARKS
ALBANY         FAIR      23  14  68 CALM      30.40S                  
NEW YORK CITY  FAIR      35  19  52 S7        30.43S WCI  29          
$$
 
ANZALL-230400-
MARINE OBSERVATIONS
  
STATION/POSITION TIME  TEMP    WIND        PRES    VSBY  WAVE
                       AIR SEA DIR/SP/G                  HT/PER
                 (UTC) (F)     (DEG/KT/KT) (MB)    (MI)  (FT/S)
BOSTON BUOY      0150   36 42  230/  6/  8 1029.3          1/10
BUZZARDS BAY     0200   36     250/  7/  7 1030.9F
NANTUCKET SOUND  NOT AVBL
MASS BAY-STELLWA 0204   36 42  280/  8/ 10 1027.7F  1 7/8  1/ 3
ISLE OF SHOALS   0200   35     210/ 15/ 16 1029.3R
S OF BLOCK IS    0230      45                N/A           2/ 9
$$

......................KEY.........................
  SKY/WX - SKY CONDITION/PRESENT WEATHER
  TMP    - TEMPERATURE IN FAHRENHEIT
  DWPT   - DEWPOINT IN FAHRENHEIT
  RH     - RELATIVE HUMIDITY IN PERCENT
  WIND   - DIRECTION AND SPEED IN MPH
  PRES   - MEAN SEA LEVEL PRESSURE IN INCHES OF HG
  WCI    - WIND CHILL INDEX
  VSB    - VISIBILITY IN MILES
  HX     - HEAT INDEX
  TC     - TEMPERATURE IN CELSIUS
  VRB    - VARIABLE WIND DIRECTION
  N/A    - NOT AVAILABLE
  
      

Other recent Regional Weather Roundups

Thu Jan 23, 8:00am

Thu Jan 23, 7:10am

Thu Jan 23, 7:01am

Thu Jan 23, 6:10am

Thu Jan 23, 6:00am

Thu Jan 23, 5:10am

Thu Jan 23, 5:00am

Thu Jan 23, 4:10am

Thu Jan 23, 4:01am

Thu Jan 23, 3:10am

Thu Jan 23, 3:00am

Thu Jan 23, 2:10am

Thu Jan 23, 2:00am

Thu Jan 23, 1:10am

Thu Jan 23, 1:00am

Thu Jan 23, 12:10am

Thu Jan 23, 12:00am

Wed Jan 22, 11:10pm

Wed Jan 22, 11:01pm

Wed Jan 22, 10:10pm

Wed Jan 22, 9:10pm

Wed Jan 22, 9:00pm

Wed Jan 22, 8:10pm

Wed Jan 22, 8:01pm

Wed Jan 22, 7:10pm

Wed Jan 22, 7:00pm

Wed Jan 22, 6:10pm

Wed Jan 22, 6:01pm

Wed Jan 22, 5:10pm

Wed Jan 22, 5:00pm

Wed Jan 22, 4:10pm

Wed Jan 22, 4:00pm

Wed Jan 22, 3:10pm

Wed Jan 22, 3:00pm

Wed Jan 22, 2:10pm

Wed Jan 22, 2:00pm

Wed Jan 22, 1:10pm

Wed Jan 22, 1:00pm

Wed Jan 22, 12:10pm

Wed Jan 22, 12:00pm

Wed Jan 22, 11:10am

Wed Jan 22, 11:00am

Wed Jan 22, 10:10am

Wed Jan 22, 10:01am

Wed Jan 22, 9:10am

Wed Jan 22, 9:00am

Wed Jan 22, 8:10am

Wed Jan 22, 8:00am

Wed Jan 22, 7:10am

Wed Jan 22, 7:00am

Wed Jan 22, 6:10am

Wed Jan 22, 6:00am

Wed Jan 22, 5:10am

Wed Jan 22, 5:00am

Wed Jan 22, 4:10am

Wed Jan 22, 4:00am

Wed Jan 22, 3:10am

Wed Jan 22, 3:01am

Wed Jan 22, 2:10am

Wed Jan 22, 2:00am

Wed Jan 22, 1:10am

Wed Jan 22, 1:00am

Wed Jan 22, 12:10am

Wed Jan 22, 12:00am

Tue Jan 21, 11:10pm

Tue Jan 21, 11:00pm

Tue Jan 21, 10:10pm

Tue Jan 21, 10:00pm

Tue Jan 21, 9:10pm

Tue Jan 21, 9:01pm

Tue Jan 21, 8:10pm

Tue Jan 21, 8:00pm

Tue Jan 21, 7:10pm

Tue Jan 21, 7:00pm

Tue Jan 21, 6:10pm

Tue Jan 21, 6:01pm

Tue Jan 21, 5:10pm

Tue Jan 21, 5:00pm

Tue Jan 21, 4:10pm

Tue Jan 21, 4:00pm

Tue Jan 21, 3:10pm

Tue Jan 21, 3:01pm

Tue Jan 21, 2:10pm

Tue Jan 21, 2:00pm

Tue Jan 21, 1:10pm

Tue Jan 21, 1:00pm

Tue Jan 21, 12:10pm

Tue Jan 21, 12:00pm

Tue Jan 21, 11:10am

Tue Jan 21, 11:00am

Tue Jan 21, 10:10am

Tue Jan 21, 10:00am

Tue Jan 21, 9:10am

Tue Jan 21, 9:00am

Tue Jan 21, 8:10am

Tue Jan 21, 8:00am

Tue Jan 21, 7:10am

Tue Jan 21, 7:00am

Tue Jan 21, 6:10am

Tue Jan 21, 6:00am

Tue Jan 21, 5:10am

Tue Jan 21, 5:00am

Tue Jan 21, 4:10am

Tue Jan 21, 4:00am

Tue Jan 21, 3:10am

Tue Jan 21, 3:00am

Tue Jan 21, 2:10am

Tue Jan 21, 2:01am

Tue Jan 21, 1:10am

Tue Jan 21, 1:00am

Tue Jan 21, 12:10am

Tue Jan 21, 12:00am

Mon Jan 20, 11:10pm

Mon Jan 20, 11:00pm

Mon Jan 20, 10:10pm

Mon Jan 20, 10:00pm

Mon Jan 20, 9:10pm

Mon Jan 20, 9:00pm

Mon Jan 20, 8:10pm

Mon Jan 20, 8:00pm

Mon Jan 20, 7:10pm

Mon Jan 20, 7:00pm

Mon Jan 20, 6:10pm

Mon Jan 20, 6:00pm

Mon Jan 20, 5:10pm

Mon Jan 20, 5:00pm

Mon Jan 20, 4:10pm

Mon Jan 20, 4:01pm

Mon Jan 20, 3:10pm

Mon Jan 20, 3:00pm

Mon Jan 20, 2:10pm

Mon Jan 20, 2:00pm

Mon Jan 20, 1:10pm

Mon Jan 20, 1:00pm

Mon Jan 20, 12:10pm

Mon Jan 20, 12:00pm

Mon Jan 20, 11:10am

Mon Jan 20, 11:00am

Mon Jan 20, 10:10am

Mon Jan 20, 10:00am

Mon Jan 20, 9:10am

Mon Jan 20, 9:00am

Meta data:

ID: eca5b9a9-3782-409e-8b77-54af58221c30
Link: https://api.weather.gov/products/eca5b9a9-3782-409e-8b77-54af58221c30